| time (UTC) | temp F | wind direction | speed knots | gust knots | rain 1hr in | rain 24hr in | rain mn in | humidity % | barometer mb |
| 20260507224903 | 52 | 62 | 0.0 | 0.0 | 0.00 | 0.00 | 0.00 | 82 | 1016.9 |
| 20260507224402 | 52 | 62 | 0.0 | 0.0 | 0.00 | 0.00 | 0.00 | 82 | 1017.0 |
| 20260507224148 | 52 | 62 | 0.0 | 0.0 | 0.00 | 0.00 | 0.00 | 81 | 1016.9 |
| 20260507223406 | 52 | 62 | 0.0 | 0.0 | 0.00 | 0.00 | 0.00 | 80 | 1017.0 |
| 20260507222903 | 53 | 62 | 0.0 | 0.0 | 0.00 | 0.00 | 0.00 | 80 | 1017.1 |
| 20260507222404 | 53 | 62 | 0.0 | 0.0 | 0.00 | 0.00 | 0.00 | 80 | 1017.0 |
| 20260507221901 | 53 | 62 | 0.0 | 0.0 | 0.00 | 0.00 | 0.00 | 80 | 1016.9 |
| 20260507221422 | 53 | 62 | 0.0 | 0.0 | 0.00 | 0.00 | 0.00 | 80 | 1017.0 |
| 20260507220902 | 53 | 62 | 0.0 | 0.0 | 0.00 | 0.00 | 0.00 | 80 | 1017.0 |
| 20260507220719 | 53 | 62 | 0.0 | 0.0 | 0.00 | 0.00 | 0.00 | 80 | 1016.9 |
| 20260507215902 | 53 | 62 | 0.0 | 0.0 | 0.00 | 0.00 | 0.00 | 80 | 1016.9 |
| 20260507215402 | 53 | 62 | 0.0 | 0.0 | 0.00 | 0.00 | 0.00 | 78 | 1016.9 |
| 20260507214903 | 53 | 62 | 0.0 | 0.0 | 0.00 | 0.00 | 0.00 | 78 | 1016.9 |
| 20260507214403 | 53 | 62 | 0.0 | 0.0 | 0.00 | 0.00 | 0.00 | 78 | 1016.9 |
| 20260507213901 | 53 | 62 | 0.0 | 0.0 | 0.00 | 0.00 | 0.00 | 78 | 1016.9 |
| 20260507213401 | 53 | 62 | 0.0 | 0.0 | 0.00 | 0.00 | 0.00 | 78 | 1016.9 |
| 20260507212905 | 53 | 62 | 0.0 | 0.0 | 0.00 | 0.00 | 0.00 | 77 | 1016.8 |
| 20260507212402 | 53 | 62 | 0.0 | 0.0 | 0.00 | 0.00 | 0.00 | 76 | 1016.8 |
| 20260507212205 | 53 | 62 | 0.0 | 0.0 | 0.00 | 0.00 | 0.00 | 76 | 1016.9 |
| 20260507211402 | 53 | 62 | 0.0 | 0.0 | 0.00 | 0.00 | 0.00 | 76 | 1016.9 |
| 20260507210902 | 53 | 62 | 0.0 | 0.0 | 0.00 | 0.00 | 0.00 | 76 | 1016.8 |
| 20260507210401 | 54 | 62 | 0.0 | 0.0 | 0.00 | 0.00 | 0.00 | 76 | 1016.8 |
| 20260507205902 | 54 | 62 | 0.0 | 0.0 | 0.00 | 0.00 | 0.00 | 76 | 1016.8 |
| 20260507205701 | 54 | 62 | 0.0 | 0.0 | 0.00 | 0.00 | 0.00 | 75 | 1016.7 |
| 20260507204902 | 54 | 62 | 0.0 | 0.0 | 0.00 | 0.00 | 0.00 | 74 | 1016.8 |
| 20260507204403 | 54 | 62 | 0.0 | 0.0 | 0.00 | 0.00 | 0.00 | 74 | 1016.8 |
| 20260507203902 | 54 | 62 | 0.0 | 0.0 | 0.00 | 0.00 | 0.00 | 74 | 1016.8 |
| 20260507203643 | 54 | 62 | 0.0 | 0.0 | 0.00 | 0.00 | 0.00 | 73 | 1016.8 |
| 20260507202901 | 54 | 62 | 0.0 | 0.0 | 0.00 | 0.00 | 0.00 | 73 | 1016.7 |
| 20260507202419 | 54 | 62 | 0.0 | 0.0 | 0.00 | 0.00 | 0.00 | 73 | 1016.7 |
| 20260507201901 | 54 | 62 | 0.0 | 0.0 | 0.00 | 0.00 | 0.00 | 72 | 1016.7 |
| 20260507201724 | 55 | 62 | 0.0 | 0.0 | 0.00 | 0.00 | 0.00 | 71 | 1016.4 |
| 20260507201717 | 54 | 62 | 0.0 | 0.0 | 0.00 | 0.00 | 0.00 | 71 | 1016.5 |
| 20260507200402 | 55 | 62 | 0.0 | 0.0 | 0.00 | 0.00 | 0.00 | 73 | 1016.4 |
| 20260507195901 | 55 | 62 | 0.0 | 0.0 | 0.00 | 0.00 | 0.00 | 73 | 1016.4 |
| 20260507195402 | 55 | 62 | 0.0 | 0.0 | 0.00 | 0.00 | 0.00 | 73 | 1016.4 |
| 20260507194901 | 55 | 62 | 0.0 | 0.0 | 0.00 | 0.00 | 0.00 | 71 | 1016.3 |
| 20260507194401 | 56 | 62 | 0.0 | 0.0 | 0.00 | 0.00 | 0.00 | 71 | 1016.3 |
| 20260507193901 | 56 | 62 | 0.0 | 0.0 | 0.00 | 0.00 | 0.00 | 70 | 1016.3 |
| 20260507193401 | 56 | 62 | 0.0 | 0.0 | 0.00 | 0.00 | 0.00 | 69 | 1016.3 |
| 20260507192900 | 56 | 62 | 0.0 | 0.0 | 0.00 | 0.00 | 0.00 | 68 | 1016.3 |
| 20260507192714 | 56 | 62 | 0.0 | 0.0 | 0.00 | 0.00 | 0.00 | 68 | 1016.2 |
| 20260507191903 | 56 | 62 | 0.0 | 0.0 | 0.00 | 0.00 | 0.00 | 70 | 1016.3 |
| 20260507191716 | 57 | 62 | 0.0 | 0.0 | 0.00 | 0.00 | 0.00 | 69 | 1016.1 |
| 20260507190901 | 57 | 62 | 0.0 | 0.0 | 0.00 | 0.00 | 0.00 | 69 | 1016.2 |
| 20260507190359 | 57 | 62 | 0.0 | 0.0 | 0.00 | 0.00 | 0.00 | 67 | 1016.1 |
| 20260507185859 | 57 | 62 | 0.0 | 0.0 | 0.00 | 0.00 | 0.00 | 68 | 1016.2 |
| 20260507185359 | 58 | 62 | 0.0 | 0.0 | 0.00 | 0.00 | 0.00 | 68 | 1016.2 |
| 20260507184859 | 58 | 62 | 0.0 | 0.0 | 0.00 | 0.00 | 0.00 | 66 | 1016.2 |
| 20260507184400 | 58 | 62 | 0.0 | 0.0 | 0.00 | 0.00 | 0.00 | 60 | 1016.1 |
| 20260507183859 | 58 | 62 | 0.0 | 0.0 | 0.00 | 0.00 | 0.00 | 58 | 1016.1 |
| 20260507183359 | 58 | 62 | 0.0 | 0.0 | 0.00 | 0.00 | 0.00 | 58 | 1016.0 |
| 20260507182859 | 58 | 62 | 0.0 | 0.0 | 0.00 | 0.00 | 0.00 | 58 | 1016.2 |
| 20260507182358 | 58 | 62 | 0.0 | 0.0 | 0.00 | 0.00 | 0.00 | 58 | 1016.1 |
| 20260507181917 | 58 | 62 | 0.0 | 0.0 | 0.00 | 0.00 | 0.00 | 58 | 1016.1 |
| 20260507181358 | 58 | 62 | 0.0 | 0.0 | 0.00 | 0.00 | 0.00 | 57 | 1016.1 |
| 20260507180859 | 58 | 62 | 0.0 | 0.0 | 0.00 | 0.00 | 0.00 | 58 | 1016.1 |
| 20260507180357 | 58 | 62 | 0.0 | 0.0 | 0.00 | 0.00 | 0.00 | 56 | 1016.0 |
| 20260507175858 | 58 | 62 | 0.0 | 0.0 | 0.00 | 0.00 | 0.00 | 55 | 1016.1 |
| 20260507175358 | 59 | 62 | 0.0 | 0.0 | 0.00 | 0.00 | 0.00 | 56 | 1016.0 |
| 20260507174900 | 59 | 62 | 0.0 | 0.9 | 0.00 | 0.00 | 0.00 | 59 | 1016.1 |
| 20260507174505 | 59 | 63 | 0.9 | 2.6 | 0.00 | 0.00 | 0.00 | 55 | 1016.0 |
| 20260507174500 | 59 | 63 | 0.9 | 0.9 | 0.00 | 0.00 | 0.00 | 54 | 1016.1 |
| 20260507174439 | 59 | 63 | 0.0 | 2.6 | 0.00 | 0.00 | 0.00 | 57 | 1016.1 |
| 20260507173146 | 59 | 63 | 0.0 | 1.7 | 0.00 | 0.00 | 0.00 | 55 | 1016.0 |
| 20260507172358 | 59 | 63 | 0.0 | 1.7 | 0.00 | 0.00 | 0.00 | 54 | 1015.9 |
| 20260507171857 | 59 | 63 | 0.9 | 1.7 | 0.00 | 0.00 | 0.00 | 56 | 1016.1 |
| 20260507171358 | 59 | 61 | 0.0 | 2.6 | 0.00 | 0.00 | 0.00 | 56 | 1016.1 |
| 20260507170857 | 59 | 61 | 1.7 | 2.6 | 0.00 | 0.00 | 0.00 | 54 | 1016.0 |
| 20260507170357 | 59 | 66 | 0.0 | 2.6 | 0.00 | 0.00 | 0.00 | 56 | 1016.0 |
| 20260507170138 | 59 | 66 | 1.7 | 3.5 | 0.00 | 0.00 | 0.00 | 56 | 1016.0 |
| 20260507165358 | 59 | 66 | 1.7 | 3.5 | 0.00 | 0.00 | 0.00 | 55 | 1016.0 |
| 20260507164856 | 59 | 71 | 0.0 | 0.0 | 0.00 | 0.00 | 0.00 | 56 | 1016.1 |
| 20260507164356 | 59 | 71 | 0.0 | 0.0 | 0.00 | 0.00 | 0.00 | 54 | 1016.0 |
| 20260507163856 | 59 | 71 | 0.0 | 2.6 | 0.00 | 0.00 | 0.00 | 53 | 1016.0 |
| 20260507163356 | 60 | 71 | 0.0 | 3.5 | 0.00 | 0.00 | 0.00 | 54 | 1015.9 |
| 20260507162856 | 60 | 71 | 1.7 | 3.5 | 0.00 | 0.00 | 0.00 | 54 | 1016.1 |
| 20260507162648 | 60 | 69 | 0.9 | 3.5 | 0.00 | 0.00 | 0.00 | 54 | 1016.0 |
| 20260507161855 | 60 | 62 | 0.0 | 2.6 | 0.00 | 0.00 | 0.00 | 54 | 1016.0 |
| 20260507161646 | 60 | 61 | 0.0 | 3.5 | 0.00 | 0.00 | 0.00 | 54 | 1016.0 |
| 20260507160855 | 60 | 59 | 0.9 | 4.3 | 0.00 | 0.00 | 0.00 | 54 | 1015.9 |
| 20260507160406 | 60 | 78 | 1.7 | 4.3 | 0.00 | 0.00 | 0.00 | 54 | 1016.1 |
| 20260507155856 | 60 | 97 | 1.7 | 2.6 | 0.00 | 0.00 | 0.00 | 53 | 1016.1 |
| 20260507155355 | 60 | 100 | 0.0 | 1.7 | 0.00 | 0.00 | 0.00 | 52 | 1015.9 |
| 20260507154855 | 60 | 99 | 0.0 | 3.5 | 0.00 | 0.00 | 0.00 | 54 | 1016.0 |
| 20260507154354 | 60 | 99 | 1.7 | 3.5 | 0.00 | 0.00 | 0.00 | 54 | 1015.9 |
| 20260507153858 | 60 | 116 | 1.7 | 2.6 | 0.00 | 0.00 | 0.00 | 54 | 1016.0 |
| 20260507153355 | 60 | 78 | 0.0 | 3.5 | 0.00 | 0.00 | 0.00 | 53 | 1015.9 |
| 20260507152855 | 60 | 72 | 0.0 | 4.3 | 0.00 | 0.00 | 0.00 | 53 | 1015.9 |
| 20260507152354 | 60 | 61 | 1.7 | 4.3 | 0.00 | 0.00 | 0.00 | 53 | 1015.9 |
| 20260507151854 | 60 | 38 | 0.9 | 4.3 | 0.00 | 0.00 | 0.00 | 52 | 1015.9 |
| 20260507151354 | 60 | 80 | 2.6 | 4.3 | 0.00 | 0.00 | 0.00 | 53 | 1015.8 |
| 20260507150853 | 60 | 96 | 2.6 | 4.3 | 0.00 | 0.00 | 0.00 | 52 | 1015.8 |
| 20260507150354 | 60 | 61 | 0.9 | 3.5 | 0.00 | 0.00 | 0.00 | 56 | 1015.8 |
| 20260507145852 | 60 | 317 | 0.0 | 2.6 | 0.00 | 0.00 | 0.00 | 52 | 1015.8 |
| 20260507145408 | 60 | 51 | 0.9 | 3.5 | 0.00 | 0.00 | 0.00 | 53 | 1015.7 |
| 20260507144852 | 60 | 20 | 1.7 | 5.2 | 0.00 | 0.00 | 0.00 | 53 | 1015.7 |
| 20260507144651 | 60 | 44 | 2.6 | 5.2 | 0.00 | 0.00 | 0.00 | 53 | 1015.8 |
| 20260507143853 | 60 | 6 | 0.0 | 2.6 | 0.00 | 0.00 | 0.00 | 52 | 1015.7 |
| 20260507143355 | 60 | 6 | 0.9 | 4.3 | 0.00 | 0.00 | 0.00 | 53 | 1015.7 |
| 20260507142853 | 60 | 10 | 1.7 | 4.3 | 0.00 | 0.00 | 0.00 | 53 | 1015.8 |
| 20260507142354 | 60 | 44 | 0.0 | 3.5 | 0.00 | 0.00 | 0.00 | 51 | 1015.7 |
| 20260507141852 | 60 | 55 | 2.6 | 3.5 | 0.00 | 0.00 | 0.00 | 51 | 1015.8 |
| 20260507141354 | 60 | 72 | 1.7 | 4.3 | 0.00 | 0.00 | 0.00 | 53 | 1015.9 |
| 20260507140854 | 60 | 24 | 1.7 | 4.3 | 0.00 | 0.00 | 0.00 | 53 | 1016.0 |
| 20260507140352 | 60 | 73 | 1.7 | 4.3 | 0.00 | 0.00 | 0.00 | 52 | 1015.9 |
| 20260507135853 | 60 | 89 | 1.7 | 4.3 | 0.00 | 0.00 | 0.00 | 52 | 1015.9 |
| 20260507135354 | 60 | 68 | 0.9 | 4.3 | 0.00 | 0.00 | 0.00 | 52 | 1016.0 |
| 20260507134854 | 60 | 47 | 1.7 | 3.5 | 0.00 | 0.00 | 0.00 | 55 | 1016.1 |
| 20260507134347 | 59 | 41 | 0.0 | 2.6 | 0.00 | 0.00 | 0.00 | 55 | 1016.1 |
| 20260507133848 | 59 | 41 | 1.7 | 4.3 | 0.00 | 0.00 | 0.00 | 54 | 1016.0 |
| 20260507133348 | 59 | 42 | 1.7 | 4.3 | 0.00 | 0.00 | 0.00 | 54 | 1016.0 |
| 20260507132848 | 60 | 45 | 1.7 | 3.5 | 0.00 | 0.00 | 0.00 | 54 | 1016.1 |
| 20260507132349 | 60 | 90 | 0.0 | 2.6 | 0.00 | 0.00 | 0.00 | 52 | 1016.0 |
| 20260507131850 | 59 | 85 | 0.0 | 5.2 | 0.00 | 0.00 | 0.00 | 49 | 1016.0 |
| 20260507131643 | 59 | 59 | 1.7 | 5.2 | 0.00 | 0.00 | 0.00 | 52 | 1016.1 |
| 20260507130849 | 59 | 48 | 1.7 | 5.2 | 0.00 | 0.00 | 0.00 | 54 | 1016.0 |
| 20260507130640 | 59 | 42 | 2.6 | 5.2 | 0.00 | 0.00 | 0.00 | 54 | 1016.0 |
| 20260507125849 | 59 | 44 | 1.7 | 4.3 | 0.00 | 0.00 | 0.00 | 55 | 1016.0 |
| 20260507125348 | 59 | 14 | 1.7 | 3.5 | 0.00 | 0.00 | 0.00 | 54 | 1016.1 |
| 20260507124847 | 60 | 61 | 1.7 | 5.2 | 0.00 | 0.00 | 0.00 | 52 | 1016.0 |
| 20260507124347 | 59 | 59 | 3.5 | 5.2 | 0.00 | 0.00 | 0.00 | 56 | 1016.0 |
| 20260507123847 | 59 | 89 | 0.9 | 6.1 | 0.00 | 0.00 | 0.00 | 53 | 1015.9 |
| 20260507123346 | 59 | 61 | 2.6 | 6.1 | 0.00 | 0.00 | 0.00 | 53 | 1015.9 |
| 20260507122846 | 59 | 96 | 5.2 | 6.1 | 0.00 | 0.00 | 0.00 | 54 | 1015.9 |
| 20260507122345 | 59 | 94 | 1.7 | 7.8 | 0.00 | 0.00 | 0.00 | 54 | 1015.9 |
| 20260507121846 | 59 | 51 | 3.5 | 7.8 | 0.00 | 0.00 | 0.00 | 55 | 1015.8 |
| 20260507121347 | 59 | 86 | 1.7 | 6.1 | 0.00 | 0.00 | 0.00 | 55 | 1015.9 |
| 20260507120844 | 59 | 89 | 3.5 | 6.1 | 0.00 | 0.00 | 0.00 | 56 | 1015.7 |
| 20260507120344 | 59 | 48 | 2.6 | 6.1 | 0.00 | 0.00 | 0.00 | 55 | 1015.9 |
| 20260507115843 | 59 | 6 | 1.7 | 4.3 | 0.00 | 0.00 | 0.00 | 56 | 1015.7 |
| 20260507115341 | 59 | 30 | 0.0 | 3.5 | 0.00 | 0.00 | 0.00 | 55 | 1015.8 |
| 20260507114843 | 59 | 30 | 1.7 | 4.3 | 0.00 | 0.00 | 0.00 | 53 | 1015.8 |
| 20260507114342 | 59 | 11 | 1.7 | 4.3 | 0.00 | 0.00 | 0.00 | 55 | 1015.8 |
| 20260507113842 | 59 | 14 | 0.0 | 4.3 | 0.00 | 0.00 | 0.00 | 55 | 1015.8 |
| 20260507113342 | 59 | 23 | 1.7 | 4.3 | 0.00 | 0.00 | 0.00 | 55 | 1015.8 |
| 20260507112842 | 59 | 6 | 1.7 | 4.3 | 0.00 | 0.01 | 0.00 | 56 | 1015.7 |
| 20260507112340 | 59 | 14 | 2.6 | 5.2 | 0.00 | 0.01 | 0.00 | 56 | 1015.8 |
| 20260507112129 | 59 | 336 | 3.5 | 6.1 | 0.00 | 0.01 | 0.00 | 55 | 1015.8 |
| 20260507111342 | 60 | 319 | 4.3 | 6.1 | 0.00 | 0.01 | 0.00 | 58 | 1015.8 |
| 20260507110841 | 60 | 0 | 2.6 | 5.2 | 0.00 | 0.01 | 0.00 | 54 | 1015.8 |
| 20260507110342 | 60 | 21 | 1.7 | 4.3 | 0.00 | 0.01 | 0.00 | 53 | 1015.9 |
| 20260507105839 | 60 | 55 | 2.6 | 6.1 | 0.00 | 0.01 | 0.00 | 58 | 1015.9 |
| 20260507105342 | 60 | 21 | 3.5 | 6.1 | 0.00 | 0.01 | 0.00 | 54 | 1015.9 |
| 20260507104842 | 60 | 336 | 3.5 | 4.3 | 0.00 | 0.01 | 0.00 | 56 | 1016.0 |
| 20260507104340 | 61 | 305 | 1.7 | 6.1 | 0.00 | 0.01 | 0.00 | 53 | 1016.0 |
| 20260507103837 | 60 | 144 | 1.7 | 8.7 | 0.00 | 0.01 | 0.00 | 52 | 1015.8 |
| 20260507103336 | 61 | 117 | 4.3 | 8.7 | 0.00 | 0.01 | 0.00 | 52 | 1016.0 |
| 20260507102837 | 61 | 76 | 3.5 | 7.8 | 0.00 | 0.01 | 0.00 | 56 | 1015.8 |
| 20260507102334 | 61 | 99 | 1.7 | 5.2 | 0.00 | 0.01 | 0.00 | 56 | 1016.0 |
| 20260507101837 | 61 | 28 | 3.5 | 7.8 | 0.00 | 0.01 | 0.00 | 59 | 1015.9 |
| 20260507101333 | 60 | 44 | 3.5 | 7.8 | 0.00 | 0.01 | 0.00 | 61 | 1016.0 |
| 20260507101148 | 60 | 37 | 2.6 | 5.2 | 0.00 | 0.01 | 0.00 | 62 | 1015.9 |
| 20260507101142 | 60 | 38 | 0.9 | 5.2 | 0.00 | 0.01 | 0.00 | 60 | 1015.9 |
| 20260507095831 | 59 | 82 | 1.7 | 6.1 | 0.00 | 0.01 | 0.00 | 60 | 1015.9 |
| 20260507095616 | 59 | 99 | 3.5 | 6.1 | 0.00 | 0.01 | 0.00 | 63 | 1016.0 |
| 20260507094832 | 59 | 21 | 3.5 | 6.1 | 0.00 | 0.01 | 0.00 | 63 | 1015.6 |
| 20260507094332 | 59 | 20 | 0.9 | 6.1 | 0.00 | 0.01 | 0.00 | 63 | 1015.5 |
| 20260507093831 | 59 | 65 | 3.5 | 6.1 | 0.00 | 0.01 | 0.00 | 63 | 1015.4 |
| 20260507093331 | 59 | 42 | 3.5 | 6.1 | 0.00 | 0.01 | 0.00 | 64 | 1015.3 |
| 20260507092832 | 58 | 72 | 4.3 | 6.1 | 0.00 | 0.01 | 0.00 | 65 | 1015.2 |
| 20260507092330 | 58 | 54 | 2.6 | 4.3 | 0.00 | 0.01 | 0.00 | 64 | 1015.1 |
| 20260507091829 | 58 | 24 | 0.9 | 5.2 | 0.00 | 0.01 | 0.00 | 65 | 1015.0 |
| 20260507091330 | 58 | 11 | 3.5 | 5.2 | 0.00 | 0.01 | 0.00 | 68 | 1014.9 |
| 20260507091114 | 58 | 116 | 3.5 | 5.2 | 0.00 | 0.01 | 0.00 | 67 | 1014.8 |
| 20260507090332 | 56 | 38 | 2.6 | 6.1 | 0.00 | 0.01 | 0.00 | 67 | 1014.5 |
| 20260507090115 | 56 | 51 | 3.5 | 6.1 | 0.00 | 0.01 | 0.00 | 68 | 1014.3 |
| 20260507085332 | 56 | 10 | 2.6 | 6.1 | 0.00 | 0.01 | 0.00 | 68 | 1014.0 |
| 20260507084829 | 56 | 1 | 3.5 | 5.2 | 0.00 | 0.01 | 0.00 | 69 | 1014.0 |
| 20260507084330 | 56 | 51 | 2.6 | 5.2 | 0.00 | 0.01 | 0.00 | 69 | 1013.8 |
| 20260507083830 | 56 | 27 | 1.7 | 5.2 | 0.00 | 0.01 | 0.00 | 67 | 1013.7 |
| 20260507083330 | 55 | 25 | 2.6 | 4.3 | 0.00 | 0.01 | 0.00 | 69 | 1013.3 |
| 20260507082830 | 55 | 32 | 1.7 | 6.1 | 0.00 | 0.01 | 0.00 | 72 | 1012.8 |
| 20260507082338 | 55 | 28 | 3.5 | 6.1 | 0.00 | 0.01 | 0.00 | 71 | 1012.3 |
| 20260507081830 | 54 | 14 | 0.0 | 5.2 | 0.00 | 0.01 | 0.00 | 73 | 1012.4 |
| 20260507081403 | 53 | 3 | 0.0 | 3.5 | 0.00 | 0.01 | 0.00 | 74 | 1015.4 |
| 20260507081352 | 53 | 0 | 1.7 | 5.2 | 0.00 | 0.01 | 0.00 | 73 | 1015.3 |
| 20260507080329 | 53 | 45 | 1.7 | 5.2 | 0.00 | 0.01 | 0.00 | 74 | 1015.4 |
| 20260507075829 | 53 | 16 | 3.5 | 5.2 | 0.00 | 0.01 | 0.00 | 73 | 1015.3 |
| 20260507075616 | 52 | 20 | 1.7 | 4.3 | 0.00 | 0.01 | 0.00 | 76 | 1015.2 |
| 20260507074830 | 51 | 25 | 0.9 | 3.5 | 0.00 | 0.01 | 0.00 | 76 | 1015.3 |
| 20260507074622 | 51 | 6 | 1.7 | 3.5 | 0.00 | 0.01 | 0.00 | 77 | 1015.3 |
| 20260507073837 | 50 | 14 | 2.6 | 3.5 | 0.00 | 0.01 | 0.00 | 76 | 1015.3 |
| 20260507073330 | 50 | 8 | 1.7 | 4.3 | 0.00 | 0.01 | 0.00 | 78 | 1015.4 |
| 20260507072846 | 50 | 42 | 2.6 | 4.3 | 0.00 | 0.01 | 0.00 | 78 | 1015.4 |
| 20260507072331 | 50 | 52 | 2.6 | 4.3 | 0.00 | 0.01 | 0.00 | 77 | 1015.2 |
| 20260507071831 | 49 | 11 | 2.6 | 5.2 | 0.00 | 0.01 | 0.00 | 78 | 1015.3 |
| 20260507071330 | 49 | 11 | 2.6 | 5.2 | 0.00 | 0.01 | 0.00 | 79 | 1015.3 |
| 20260507070832 | 49 | 8 | 1.7 | 4.3 | 0.00 | 0.01 | 0.00 | 79 | 1015.2 |
| 20260507070331 | 49 | 16 | 1.7 | 4.3 | 0.00 | 0.01 | 0.00 | 79 | 1015.1 |
| 20260507065831 | 49 | 21 | 1.7 | 4.3 | 0.00 | 0.01 | 0.00 | 79 | 1015.1 |
| 20260507065627 | 49 | 10 | 2.6 | 4.3 | 0.00 | 0.01 | 0.00 | 80 | 1015.2 |
| 20260507064830 | 49 | 7 | 2.6 | 5.2 | 0.00 | 0.01 | 0.00 | 80 | 1015.1 |
| 20260507064331 | 49 | 20 | 2.6 | 5.2 | 0.00 | 0.01 | 0.00 | 80 | 1015.1 |
| 20260507063831 | 49 | 13 | 2.6 | 5.2 | 0.00 | 0.01 | 0.00 | 80 | 1015.2 |
| 20260507063331 | 48 | 25 | 3.5 | 5.2 | 0.00 | 0.01 | 0.00 | 80 | 1015.1 |
| 20260507062830 | 49 | 27 | 2.6 | 5.2 | 0.00 | 0.01 | 0.00 | 80 | 1015.1 |
| 20260507062331 | 48 | 14 | 2.6 | 4.3 | 0.00 | 0.01 | 0.00 | 80 | 1015.1 |
| 20260507061831 | 48 | 4 | 2.6 | 5.2 | 0.00 | 0.01 | 0.00 | 80 | 1014.9 |
| 20260507061330 | 48 | 10 | 3.5 | 5.2 | 0.00 | 0.01 | 0.00 | 80 | 1015.0 |
| 20260507060830 | 48 | 28 | 2.6 | 8.7 | 0.00 | 0.01 | 0.00 | 81 | 1014.9 |
| 20260507060330 | 48 | 17 | 3.5 | 8.7 | 0.00 | 0.01 | 0.00 | 81 | 1014.9 |
| 20260507055831 | 48 | 4 | 4.3 | 7.8 | 0.00 | 0.01 | 0.00 | 81 | 1014.9 |
| 20260507055330 | 48 | 16 | 3.5 | 6.1 | 0.00 | 0.01 | 0.00 | 82 | 1014.9 |
| 20260507055115 | 48 | 24 | 2.6 | 5.2 | 0.00 | 0.01 | 0.00 | 82 | 1014.7 |
| 20260507054330 | 48 | 38 | 2.6 | 4.3 | 0.00 | 0.01 | 0.00 | 81 | 1014.7 |
| 20260507054119 | 48 | 23 | 1.7 | 4.3 | 0.00 | 0.01 | 0.00 | 83 | 1014.8 |
| 20260507053330 | 48 | 24 | 1.7 | 4.3 | 0.00 | 0.01 | 0.00 | 82 | 1014.8 |
| 20260507052831 | 48 | 7 | 2.6 | 4.3 | 0.00 | 0.01 | 0.00 | 83 | 1014.7 |
| 20260507052615 | 48 | 13 | 1.7 | 4.3 | 0.00 | 0.01 | 0.00 | 82 | 1014.7 |
| 20260507051830 | 48 | 16 | 2.6 | 4.3 | 0.00 | 0.01 | 0.00 | 82 | 1014.6 |
| 20260507051330 | 48 | 30 | 1.7 | 4.3 | 0.00 | 0.01 | 0.00 | 81 | 1014.6 |
| 20260507050830 | 48 | 54 | 1.7 | 4.3 | 0.00 | 0.01 | 0.00 | 82 | 1014.6 |
| 20260507050622 | 48 | 25 | 1.7 | 4.3 | 0.00 | 0.01 | 0.00 | 82 | 1014.5 |
| 20260507045830 | 48 | 28 | 2.6 | 4.3 | 0.00 | 0.01 | 0.00 | 82 | 1014.4 |
| 20260507045644 | 48 | 16 | 2.6 | 5.2 | 0.00 | 0.01 | 0.00 | 82 | 1014.4 |
| 20260507045122 | 48 | 18 | 2.6 | 5.2 | 0.00 | 0.01 | 0.00 | 81 | 1014.4 |
| 20260507044331 | 48 | 20 | 1.7 | 3.5 | 0.00 | 0.01 | 0.00 | 81 | 1014.3 |
| 20260507044118 | 48 | 7 | 2.6 | 4.3 | 0.00 | 0.01 | 0.00 | 81 | 1014.2 |
| 20260507043622 | 48 | 11 | 2.6 | 4.3 | 0.00 | 0.01 | 0.00 | 81 | 1014.2 |
| 20260507042829 | 48 | 51 | 3.5 | 4.3 | 0.00 | 0.01 | 0.00 | 81 | 1014.2 |
| 20260507042331 | 48 | 11 | 1.7 | 5.2 | 0.00 | 0.01 | 0.00 | 81 | 1014.1 |
| 20260507041830 | 48 | 23 | 1.7 | 5.2 | 0.00 | 0.01 | 0.00 | 81 | 1014.0 |
| 20260507041618 | 48 | 25 | 1.7 | 3.5 | 0.00 | 0.01 | 0.00 | 82 | 1014.0 |
| 20260507040829 | 48 | 13 | 0.9 | 3.5 | 0.00 | 0.01 | 0.00 | 82 | 1013.9 |
| 20260507040330 | 49 | 13 | 1.7 | 4.3 | 0.00 | 0.01 | 0.00 | 82 | 1013.9 |
| 20260507035830 | 49 | 18 | 1.7 | 4.3 | 0.00 | 0.01 | 0.00 | 82 | 1013.8 |
| 20260507035331 | 49 | 0 | 2.6 | 4.3 | 0.00 | 0.01 | 0.00 | 81 | 1013.8 |
| 20260507034832 | 49 | 35 | 1.7 | 4.3 | 0.00 | 0.01 | 0.00 | 81 | 1013.8 |
| 20260507034641 | 49 | 37 | 1.7 | 4.3 | 0.00 | 0.01 | 0.00 | 81 | 1013.7 |
| 20260507033830 | 49 | 28 | 1.7 | 4.3 | 0.00 | 0.01 | 0.00 | 81 | 1013.7 |
| 20260507033438 | 49 | 16 | 1.7 | 3.5 | 0.00 | 0.01 | 0.00 | 81 | 1013.7 |
| 20260507033400 | 49 | 30 | 1.7 | 4.3 | 0.00 | 0.01 | 0.00 | 81 | 1013.7 |
| 20260507032346 | 49 | 27 | 1.7 | 3.5 | 0.00 | 0.01 | 0.00 | 81 | 1013.7 |
| 20260507031830 | 49 | 21 | 1.7 | 2.6 | 0.00 | 0.02 | 0.00 | 81 | 1013.7 |
| 20260507031632 | 49 | 0 | 1.7 | 2.6 | 0.00 | 0.02 | 0.00 | 81 | 1013.7 |
| 20260507030830 | 49 | 41 | 0.0 | 0.0 | 0.00 | 0.02 | 0.00 | 82 | 1013.6 |
| 20260507030330 | 49 | 41 | 0.0 | 0.0 | 0.00 | 0.02 | 0.00 | 81 | 1013.7 |
| 20260507025830 | 49 | 44 | 0.0 | 0.0 | 0.00 | 0.02 | 0.00 | 82 | 1013.6 |
| 20260507025330 | 49 | 45 | 0.0 | 0.0 | 0.00 | 0.02 | 0.00 | 82 | 1013.6 |
| 20260507025121 | 50 | 44 | 0.0 | 0.0 | 0.00 | 0.02 | 0.00 | 82 | 1013.5 |
| 20260507024331 | 50 | 45 | 0.0 | 0.0 | 0.00 | 0.02 | 0.00 | 82 | 1013.6 |
| 20260507023837 | 50 | 32 | 0.0 | 0.9 | 0.00 | 0.02 | 0.00 | 81 | 1013.5 |
| 20260507023624 | 50 | 31 | 0.0 | 2.6 | 0.00 | 0.02 | 0.00 | 82 | 1013.4 |
| 20260507023130 | 50 | 30 | 1.7 | 2.6 | 0.00 | 0.02 | 0.00 | 81 | 1013.4 |
| 20260507022330 | 50 | 27 | 0.9 | 2.6 | 0.00 | 0.02 | 0.00 | 81 | 1013.4 |
| 20260507022140 | 50 | 27 | 0.0 | 2.6 | 0.00 | 0.02 | 0.00 | 81 | 1013.4 |
| 20260507021330 | 50 | 14 | 0.0 | 2.6 | 0.00 | 0.02 | 0.00 | 82 | 1013.2 |
| 20260507020831 | 50 | 13 | 1.7 | 2.6 | 0.00 | 0.02 | 0.00 | 82 | 1013.2 |
| 20260507020330 | 50 | 13 | 0.0 | 0.0 | 0.00 | 0.02 | 0.00 | 81 | 1013.2 |
| 20260507020129 | 50 | 11 | 0.0 | 2.6 | 0.00 | 0.02 | 0.00 | 81 | 1013.1 |
| 20260507015330 | 50 | 13 | 0.9 | 3.5 | 0.00 | 0.02 | 0.00 | 81 | 1013.1 |
| 20260507014829 | 50 | 11 | 0.9 | 3.5 | 0.00 | 0.02 | 0.00 | 80 | 1013.0 |
| 20260507014330 | 50 | 18 | 1.7 | 4.3 | 0.00 | 0.02 | 0.00 | 80 | 1013.0 |
| 20260507013830 | 50 | 17 | 1.7 | 4.3 | 0.00 | 0.02 | 0.00 | 80 | 1013.0 |
| 20260507013330 | 50 | 17 | 2.6 | 3.5 | 0.00 | 0.02 | 0.00 | 80 | 1013.0 |
| 20260507012830 | 50 | 343 | 0.9 | 2.6 | 0.00 | 0.02 | 0.00 | 80 | 1013.0 |
| 20260507012331 | 50 | 8 | 0.9 | 1.7 | 0.00 | 0.02 | 0.00 | 79 | 1013.0 |
| 20260507012207 | 50 | 10 | 0.0 | 0.0 | 0.00 | 0.02 | 0.00 | 79 | 1013.0 |
| 20260507011331 | 50 | 10 | 0.0 | 0.0 | 0.00 | 0.02 | 0.00 | 78 | 1012.9 |
| 20260507010831 | 50 | 11 | 0.0 | 0.0 | 0.00 | 0.02 | 0.00 | 78 | 1013.0 |
| 20260507010330 | 50 | 11 | 0.0 | 0.0 | 0.00 | 0.02 | 0.00 | 78 | 1012.9 |
| 20260507010134 | 50 | 11 | 0.0 | 0.0 | 0.00 | 0.02 | 0.00 | 78 | 1012.9 |
| 20260507005332 | 50 | 11 | 0.0 | 0.0 | 0.00 | 0.02 | 0.00 | 77 | 1013.0 |
| 20260507004831 | 50 | 11 | 0.0 | 0.0 | 0.00 | 0.02 | 0.00 | 77 | 1013.0 |
| 20260507004330 | 50 | 11 | 0.0 | 0.0 | 0.00 | 0.02 | 0.00 | 76 | 1012.9 |
| 20260507003833 | 50 | 11 | 0.0 | 0.0 | 0.00 | 0.02 | 0.00 | 77 | 1012.9 |
| 20260507003331 | 50 | 11 | 0.0 | 0.0 | 0.00 | 0.02 | 0.00 | 77 | 1012.9 |
| 20260507002829 | 50 | 11 | 0.0 | 0.0 | 0.00 | 0.02 | 0.00 | 77 | 1012.8 |
| 20260507002330 | 50 | 13 | 0.0 | 0.0 | 0.00 | 0.02 | 0.00 | 77 | 1012.8 |
| 20260507001831 | 50 | 13 | 0.0 | 0.0 | 0.00 | 0.02 | 0.00 | 77 | 1012.7 |
| 20260507001331 | 50 | 13 | 0.0 | 0.0 | 0.00 | 0.02 | 0.00 | 77 | 1012.8 |
| 20260507000830 | 51 | 13 | 0.0 | 0.0 | 0.00 | 0.02 | 0.00 | 76 | 1012.8 |
| 20260507000331 | 51 | 13 | 0.0 | 0.0 | 0.00 | 0.02 | 0.00 | 76 | 1012.8 |
| 20260506235831 | 51 | 13 | 0.0 | 0.0 | 0.00 | 0.02 | 0.00 | 76 | 1012.8 |
| 20260506235331 | 51 | 13 | 0.0 | 0.0 | 0.00 | 0.02 | 0.00 | 75 | 1012.8 |
| 20260506235141 | 51 | 13 | 0.0 | 0.9 | 0.00 | 0.02 | 0.00 | 76 | 1012.7 |
| 20260506234330 | 51 | 14 | 0.0 | 0.9 | 0.00 | 0.02 | 0.00 | 75 | 1012.8 |
| 20260506234133 | 51 | 14 | 0.0 | 0.0 | 0.00 | 0.02 | 0.00 | 75 | 1012.7 |
| 20260506233329 | 51 | 14 | 0.0 | 0.0 | 0.00 | 0.02 | 0.00 | 75 | 1012.7 |
| 20260506233147 | 51 | 14 | 0.0 | 2.6 | 0.00 | 0.02 | 0.00 | 74 | 1012.7 |
| 20260506232329 | 51 | 14 | 0.9 | 2.6 | 0.00 | 0.02 | 0.00 | 74 | 1012.5 |
| 20260506231831 | 51 | 14 | 1.7 | 2.6 | 0.00 | 0.02 | 0.00 | 73 | 1012.7 |
| 20260506231329 | 51 | 16 | 1.7 | 2.6 | 0.00 | 0.02 | 0.00 | 72 | 1012.7 |
| 20260506230830 | 51 | 16 | 0.9 | 4.3 | 0.00 | 0.02 | 0.00 | 72 | 1012.6 |
| 20260506230330 | 51 | 11 | 2.6 | 5.2 | 0.00 | 0.02 | 0.00 | 72 | 1012.6 |
| 20260506225829 | 51 | 13 | 2.6 | 5.2 | 0.00 | 0.02 | 0.00 | 72 | 1012.5 |
| 20260506225329 | 51 | 17 | 2.6 | 5.2 | 0.00 | 0.02 | 0.00 | 72 | 1012.5 |